408  
ASUS43 KIND 202309  
RWRIN  
 
WEATHER ROUNDUP FOR INDIANA  
NATIONAL WEATHER SERVICE INDIANAPOLIS IN  
600 PM EST TUE FEB 20 2018  
 
NOTE: "FAIR" INDICATES FEW OR NO CLOUDS BELOW 12,000 FEET WITH NO  
SIGNIFICANT WEATHER AND/OR S TO VISIBILITY
.  
 
* - STATION DOES NOT REPORT WEATHER SUCH AS PRECIPITATION OR FOG.
 
 
+ - STATION NOT QUALITY CONTROLLED BY THE NATIONAL WEATHER SERVICE.  
USE DATA WITH CAUTION...ESPECIALLY DEWPOINT AND RELATIVE  
HUMIDITY OBSERVATIONS.  
 
INZ001>003-010>013-019-020-210000-  
NORTHWEST INDIANA  
 
CITY SKY/WX TMP DP RH WIND PRES REMARKS
 
GARY /AIRPORT/ LGT RAIN 55 55 100 SW7 29.95R  
LA PORTE + RAIN 56 54 94 SW7 29.98R  
MICHIGAN CITY+ LGT RAIN 54 54 100 S3 29.97R  
MONTICELLO + RAIN 56 55 95 NW13G18 30.00R  
RENSSELAER + RAIN 55 52 88 SW5 29.99S  
VALPARAISO RAIN 57 55 93 SW6 29.98R FOG  
 

 
 
LMZ046-743>745-210000-  
SOUTHERN LAKE MICHIGAN  
 
STATION/POSITION TIME TEMP WIND PRES WAVE
 
AIR SEA DIR/SP/G HT  
(UTC) (F) (DEG/KT/KT) (MB) (FT)  
MICHIGAN CITY 2240 54 N/A  
 

 
 
INZ004-005-014>016-021>024-210000-  
NORTH CENTRAL INDIANA  
 
CITY SKY/WX TMP DP RH WIND PRES REMARKS
 
ELKHART LGT RAIN 57 55 94 W12 29.98R  
GOSHEN RAIN 59 57 93 W25G48 29.99R FOG  
LOGANSPORT + LGT RAIN 64 59 82 W14 29.98R  
PERU/GRISSOM CLOUDY 68 62 78 S16G22 29.96R  
ROCHESTER + HVY RAIN 63 63 100 W14G24 29.98R  
SOUTH BEND LGT RAIN 55 54 96 W7 29.98S  
WARSAW + RAIN 63 61 94 SW5 29.96R  
 

 
 
INZ006>009-017-018-025>027-210000-  
NORTHEAST INDIANA  
 
CITY SKY/WX TMP DP RH WIND PRES REMARKS
 
AUBURN + CLOUDY 66 57 72 S8 29.98S  
FORT WAYNE MOCLDY 69 58 67 S21G26 29.98F  
HUNTINGTON + FAIR 68 56 65 S10G16 29.98R  
KENDALLVILLE + RAIN 64 59 85 S8 29.97S  
 

 
 
INZ028-029-035-036-043>045-051>053-210000-  
WEST CENTRAL INDIANA  
 
CITY SKY/WX TMP DP RH WIND PRES REMARKS
 
CRAWFORDSVL + MOCLDY 68 58 68 S18G29 29.99R  
GREENCASTLE + FAIR 72 54 53 S15G26 30.03R  
LAFAYETTE LGT RAIN 65 62 90 SW6 29.96R  
TERRE HAUTE FAIR 73 58 59 S20G35 30.01R  
 

 
 
INZ030>032-037>040-046>048-054>057-064-065-210000-  
CENTRAL INDIANA  
 
CITY SKY/WX TMP DP RH WIND PRES REMARKS
 
COLUMBUS MOCLDY 73 46 38 S17G29 30.06R  
FISHERS *+ CLOUDY 72 59 64 S16G23 30.03R  
FRANKFORT + CLOUDY 71 60 69 SW13G21 30.01R  
GREENWOOD *+ FAIR 71 -27 2 SW12 30.05R  
INDIANAPOLIS CLOUDY 73 55 53 S23G29 30.02R  
-EAGLE CREEK MOCLDY 74 54 49 S15G26 30.01R  
KOKOMO + CLOUDY 70 58 65 S23G31 29.99S  
MARION + FAIR 68 57 68 S18 30.01R HAZE  
MT COMFORT *+ FAIR 72 59 64 S13G18 30.04R  
SHELBYVILLE FAIR 73 55 53 S18 30.05R  
ZIONSVILLE + FAIR 70 57 63 S22 30.01S  
 

 
 
INZ033-034-041-042-049-050-058-059-210000-  
EAST CENTRAL INDIANA  
 
CITY SKY/WX TMP DP RH WIND PRES REMARKS
 
MUNCIE FAIR 74 55 51 S10 30.02R  
RICHMOND + FAIR 68 54 60 SW20G29 30.09R  
 

 
 
INZ060-061-067>069-081>083-085>088-210000-  
SOUTHWEST INDIANA  
 
CITY SKY/WX TMP DP RH WIND PRES REMARKS
 
EVANSVILLE MOCLDY 73 55 53 S12 30.08R  
HUNTINGBURG + FAIR 72 57 59 S17 30.10R  
WASHINGTON + MOCLDY 72 54 53 S13 30.05S  
 

 
 
INZ062-063-066-070>080-084-089>092-210000-  
SOUTH CENTRAL AND SOUTHEAST INDIANA  
 
CITY SKY/WX TMP DP RH WIND PRES REMARKS
 
BATESVILLE + CLEAR 72 54 53 MISG 30.09R  
BEDFORD + MOCLDY 75 48 38 S17G23 30.06R  
BLOOMINGTON MOCLDY 74 54 49 S17G30 30.05R  
FRENCH LICK *+ FAIR 72 46 40 S13G25 30.10R  
MADISON *+ FAIR 72 52 49 S17G28 30.13R  
NORTH VERNON + FAIR 72 54 53 S14G22 30.09R  
SEYMOUR + FAIR 75 55 50 S20G25 30.07S  
 

 
 
 
 
CLICK HERE TO GO TO PREVIOUS BULLETINS.

The Nexlab IN Page Main Text Page